Location: Unspecified
(30.5043°N, 0.0000°E)
Time: 16:57:14
(UTC+00:00)

Vanguard 1 Rocket - Visible Passes

Search period start: 04 April 2026 00:00
Search period end: 14 April 2026 00:00
Orbit: 654 x 4213 km, 34.3° (Epoch: 28 March)

Date Brightness Start Highest point End Pass type
(mag) Time Alt. Az. Time Alt. Az. Time Alt. Az.
4 Apr 9.6 01:20:32 58° E 01:20:32 58° E 01:28:15 10° ENE visible
4 Apr 8.8 03:37:39 31° W 03:45:17 72° N 03:52:59 10° E visible
4 Apr 11.1 21:09:07 10° SSW 21:21:00 27° S 21:21:00 27° S visible
4 Apr 10.4 23:37:06 10° SW 00:11:31 28° E 00:15:44 10° ENE visible
5 Apr 9.1 02:28:37 64° WNW 02:31:26 79° N 02:41:03 10° ENE visible
5 Apr 8.3 04:46:44 10° WNW 04:59:12 80° NNE 05:05:34 10° E visible
5 Apr 11.1 19:57:49 10° S 20:13:38 22° SE 20:13:38 22° SE visible
5 Apr 11.1 22:21:26 10° SW 23:02:26 10° ENE 23:02:33 10° ENE visible
6 Apr 9.5 01:19:31 70° ENE 01:19:31 70° ENE 01:28:53 10° ENE visible
6 Apr 8.8 03:36:37 26° WNW 03:45:55 74° N 03:53:46 10° E visible
6 Apr 11.4 18:52:58 10° SSE 18:59:14 11° SE 19:05:24 10° ESE visible
6 Apr 10.8 21:07:18 10° SSW 21:23:46 37° SSE 21:23:46 37° SSE visible
6 Apr 10.2 23:36:30 10° WSW 00:10:21 37° ENE 00:16:20 10° ENE visible
7 Apr 9.2 02:27:26 55° WNW 02:31:56 76° N 02:41:46 10° E visible
7 Apr 8.3 04:46:55 10° WNW 04:59:48 89° NNE 05:06:18 10° ESE visible
7 Apr 10.9 19:55:05 10° S 20:14:36 28° SE 20:16:51 28° SE visible
7 Apr 10.9 22:20:26 10° SW 23:01:06 17° ENE 23:03:12 10° ENE visible
8 Apr 9.5 01:18:10 81° NE 01:18:10 81° NE 01:29:32 10° ENE visible
8 Apr 8.9 03:35:14 22° WNW 03:46:32 77° N 03:54:33 10° E visible
8 Apr 11.2 18:46:10 10° SSE 18:59:08 17° SE 19:10:13 12° ESE visible
8 Apr 10.5 21:05:54 10° SSW 21:51:43 - ENE 21:27:34 48° SSE visible
8 Apr 10.1 23:36:07 10° WSW 00:08:46 49° ENE 00:16:55 10° ENE visible
9 Apr 9.3 02:25:50 45° WNW 02:32:28 76° N 02:42:32 10° E visible
9 Apr 8.4 04:47:04 10° WNW 05:00:18 79° SSW 05:06:57 10° ESE visible
9 Apr 10.7 19:53:04 10° SSW 20:14:13 35° SE 20:21:19 31° ESE visible
9 Apr 10.5 22:19:44 10° SW 22:59:12 26° ENE 23:03:45 10° ENE visible
10 Apr 9.6 00:53:46 10° W 01:17:36 80° N 01:30:11 10° ENE visible
10 Apr 8.9 03:33:15 16° WNW 03:47:06 83° NNE 03:55:19 10° ESE visible
10 Apr 11.2 18:42:36 10° S 18:58:47 22° SE 19:15:19 10° E visible
10 Apr 10.3 21:04:50 10° SW 21:29:42 57° SE 21:49:48 10° ENE visible
10 Apr 9.9 23:35:56 10° WSW 00:06:18 65° ENE 00:17:29 10° ENE visible
11 Apr 9.3 02:23:17 35° WNW 02:33:00 77° N 02:43:17 10° E visible
11 Apr 8.5 04:47:11 10° WNW 05:00:41 67° SSW 05:07:31 10° SE visible
11 Apr 10.7 19:51:34 10° SSW 20:13:43 42° SE 20:28:04 24° E visible
11 Apr 10.1 22:19:16 10° WSW 22:55:39 43° ENE 23:04:14 10° ENE visible
12 Apr 9.7 00:53:53 10° W 01:18:00 78° N 01:30:52 10° E visible
12 Apr 8.9 03:30:13 10° WNW 03:47:36 89° SSW 03:56:00 10° ESE visible
12 Apr 11.0 18:40:13 10° S 18:58:14 28° SE 19:17:19 10° E visible
12 Apr 10.3 21:04:05 10° SW 21:29:21 65° SSE 21:50:18 10° ENE visible
12 Apr 10.0 23:35:54 10° WSW 00:02:11 85° NNW 00:18:03 10° ENE visible
13 Apr 9.4 02:12:21 10° W 02:33:31 80° N 02:44:01 10° E visible
13 Apr 8.7 04:47:19 10° WNW 05:00:54 55° SW 05:07:55 10° SE visible
13 Apr 10.6 19:50:27 10° SSW 20:13:09 50° SE 20:35:18 10° ENE visible
13 Apr 10.2 22:19:01 10° WSW 22:45:43 85° SSE 23:04:43 10° ENE visible
